Keahole Point, HI

12:39 AM HST on December 14, 2017 (GMT -1000)
Kona International At Keahole

Weather History for PHKO - April, 2012

Change the Weather History Date:

Monday, April 16, 2012

  Actual Average Record
Temperature  
Mean Temperature 75 °F -  
Max Temperature 82 °F 80 °F 86 °F (1982)
Min Temperature 68 °F 69 °F 66 °F (1991)
Cooling Degree Days 10    
Growing Degree Days 25 (Base 50)    
Moisture  
Dew Point 60 °F    
Average Humidity 58    
Maximum Humidity 70    
Minimum Humidity 45    
Precipitation  
Precipitation 0.00 in - - ()
Sea Level Pressure  
Sea Level Pressure 30.08 in    
Wind  
Wind Speed 8 mph (SW)    
Max Wind Speed 13 mph    
Max Gust Speed -    
Visibility 10 miles    
Events      
Averages and records for this station are not official NWS values.
T = Trace of Precipitation, MM = Missing Value Source: NWS Daily Summary

Daily Weather History Graph

Daily Weather History Graph

Search for Another Location

Airport or City:

Trip Planner

Search our weather history database for the weather conditions in past years. The results will help you decide how hot, cold, wet, or windy it might be!

Date:

Astronomy

Apr. 16, 2012 Rise Set
Actual Time 6:05 AM HST 6:42 PM HST
Civil Twilight 5:42 AM HST 7:05 PM HST
Nautical Twilight 5:16 AM HST 7:31 PM HST
Astronomical Twilight 4:49 AM HST 7:58 PM HST
Moon 3:07 AM HST (4/16) 3:16 PM HST (4/16)
Length of Visible Light 13h 22m
Length of Day
12h 37m
Waning Crescent, 17% of the Moon is Illuminated
Apr 16
Waning Crescent
Apr 20
New
Apr 28
First Quarter
May 5
Full
May 12
Last Quarter

Hourly Weather History & Observations

Time (HST) Temp. Heat Index Dew Point Humidity Pressure Visibility Wind Dir Wind Speed Gust Speed Precip Events Conditions
12:53 AM 73.0 °F - 59.0 °F 61% 30.07 in 10.0 mi ENE 12.7 mph - N/A   Scattered Clouds
1:53 AM 73.0 °F - 55.0 °F 53% 30.05 in 10.0 mi NNE 10.4 mph - N/A   Scattered Clouds
2:53 AM 73.9 °F - 55.0 °F 52% 30.04 in 10.0 mi NNE 10.4 mph - N/A   Partly Cloudy
3:53 AM 73.0 °F - 55.9 °F 55% 30.03 in 10.0 mi Calm Calm - N/A   Clear
4:53 AM 68.0 °F - 57.9 °F 70% 30.04 in 10.0 mi North 6.9 mph - N/A   Scattered Clouds
5:53 AM 69.1 °F - 55.9 °F 63% 30.06 in 10.0 mi NNE 5.8 mph - N/A   Clear
6:53 AM 71.1 °F - 55.9 °F 59% 30.08 in 10.0 mi NNE 3.5 mph - N/A   Clear
7:53 AM 75.9 °F - 55.9 °F 50% 30.10 in 10.0 mi NNW 4.6 mph - N/A   Partly Cloudy
8:53 AM 77.0 °F - 54.0 °F 45% 30.10 in 10.0 mi West 4.6 mph - N/A   Clear
9:53 AM 80.1 °F 80.7 °F 59.0 °F 48% 30.11 in 10.0 mi SW 8.1 mph - N/A   Clear
10:53 AM 81.0 °F 81.1 °F 57.9 °F 45% 30.11 in 10.0 mi SSW 8.1 mph - N/A   Clear
11:53 AM 81.0 °F 81.1 °F 57.9 °F 45% 30.10 in 10.0 mi SSW 10.4 mph - N/A   Clear
12:53 PM 82.9 °F 83.2 °F 60.1 °F 46% 30.07 in 10.0 mi South 11.5 mph - N/A   Clear
1:53 PM 82.0 °F 83.1 °F 63.0 °F 52% 30.05 in 10.0 mi South 11.5 mph - N/A   Clear
2:53 PM 82.0 °F 83.1 °F 63.0 °F 52% 30.04 in 10.0 mi SW 11.5 mph - N/A   Partly Cloudy
3:53 PM 80.1 °F 81.7 °F 64.0 °F 58% 30.03 in 10.0 mi West 8.1 mph - N/A   Scattered Clouds
4:53 PM 80.1 °F 81.7 °F 64.0 °F 58% 30.04 in 10.0 mi WSW 6.9 mph - N/A   Scattered Clouds
5:53 PM 78.1 °F - 64.0 °F 62% 30.06 in 10.0 mi SW 6.9 mph - N/A   Clear
6:53 PM 77.0 °F - 64.0 °F 64% 30.07 in 10.0 mi SSW 4.6 mph - N/A   Clear
7:53 PM 77.0 °F - 64.0 °F 64% 30.09 in 10.0 mi South 4.6 mph - N/A   Clear
8:53 PM 77.0 °F - 64.0 °F 64% 30.10 in 10.0 mi South 5.8 mph - N/A   Clear
9:53 PM 75.0 °F - 63.0 °F 66% 30.12 in 10.0 mi East 3.5 mph - N/A   Scattered Clouds
10:03 PM 75.2 °F - 62.6 °F 65% 30.11 in 10.0 mi NE 4.6 mph - N/A   Mostly Cloudy
10:34 PM 75.2 °F - 62.6 °F 65% 30.11 in 10.0 mi Calm Calm - N/A   Overcast
10:53 PM 75.9 °F - 63.0 °F 64% 30.11 in 10.0 mi Calm Calm - N/A   Mostly Cloudy
11:14 PM 75.2 °F - 64.4 °F 69% 30.10 in 10.0 mi Calm Calm - N/A   Mostly Cloudy
11:53 PM 75.0 °F - 63.0 °F 66% 30.09 in 10.0 mi Calm Calm - N/A   Clear